Regional Weather Roundup
Issued by NWS San Angelo, TX

Home | Current Version | Previous Version | Text Only | Print | Product List | Glossary On
Versions: 1 2 3 4 5 6 7 8 9 10 11 12 13 14 15 16 17 18 19 20 21 22 23 24 25 26 27 28 29 30 31 32 33 34 35 36 37 38 39 40 41 42 43 44 45 46 47 48 49 50
000
ASUS44 KSJT 072010
RWRSJT
WEST CENTRAL TEXAS REGIONAL WEATHER ROUNDUP
NATIONAL WEATHER SERVICE SAN ANGELO TX
300 PM CDT TUE JUL 07 2015

NOTE: "FAIR" INDICATES FEW OR NO CLOUDS BELOW 12,000 FEET WITH NO
SIGNIFICANT WEATHER AND/OR OBSTRUCTIONS TO VISIBILITY.

TXZ049-054-064>066-071>073-076>078-098-099-113-114-127-128-139-140-
154-155-168>170-072100
...LOCATIONS ACROSS WEST CENTRAL TEXAS...

CITY           SKY/WX    TMP DP  RH WIND       PRES   REMARKS
SAN ANGELO     TSTM      76  73  91 N3        29.97R FOG
ABILENE        CLOUDY    75  71  87 S5        29.98F
DYESS AFB      CLOUDY    75  72  88 S5        29.97F
JUNCTION       CLOUDY    84  67  56 S10       29.98F
SWEETWATER     CLOUDY    73  72  96 NE3       30.03F
BROWNWOOD      CLOUDY    81  72  74 S12       29.97F
COLEMAN        NOT AVBL
SONORA         PTSUNNY   81  72  74 S13       30.03F
OZONA          FAIR      82  68  61 S14G21    29.99F
BRADY          NOT AVBL
$$

TEXAS PANHANDLE/OKLAHOMA PANHANDLE

CITY           SKY/WX    TMP DP  RH WIND       PRES   REMARKS
AMARILLO       CLOUDY    62  58  86 NE14      30.15S FOG
BORGER         CLOUDY    69  60  73 E10       30.13F HAZE
CANADIAN       CLOUDY    65  61  85 NE14      30.10F
DALHART        PTSUNNY   74  51  44 NE10      30.17F HAZE
DUMAS          PTCLDY    69  55  62 E9        30.15F HAZE
GUYMON         NOT AVBL
HEREFORD       CLOUDY    68  62  82 MISG      30.15F HAZE
PAMPA          CLOUDY    62  59  91 CALM      30.14S FOG
PERRYTON       CLOUDY    68  57  67 E15       30.12F
$$

SOUTHERN PANHANDLE/SOUTH PLAINS/ROLLING PLAINS

CITY           SKY/WX    TMP DP  RH WIND       PRES   REMARKS
LUBBOCK        CLOUDY    70  64  81 NE15      30.08F
SNYDER         CLOUDY    76  69  78 E3        30.01F
CHILDRESS      CLOUDY    69  65  86 N13       30.03S FOG
SEMINOLE       MOCLDY    78  65  65 N13G18    30.09S
$$

PERMIAN BASIN

CITY           SKY/WX    TMP DP  RH WIND       PRES   REMARKS
MIDLAND        PTSUNNY   81  69  67 N12       30.01F
ODESSA         PTSUNNY   83  67  58 NE17G24   30.03F
WINK           MOSUNNY   90  65  43 N13G22    30.01F
$$

FAR WEST/SOUTHWEST MOUNTAINS/TRANS PECOS

CITY           SKY/WX    TMP DP  RH WIND       PRES   REMARKS
ALPINE         MOCLDY    81  62  53 N5        30.16F
DRYDEN           N/A     86  73  65 S10       29.96F
EL PASO        MOSUNNY   91  58  32 CALM      30.03F
FORT STOCKTON  CLOUDY    86  66  51 NW16G24   30.01F
GUADALUPE PASS MOSUNNY   75  61  61 E24       30.19F
MARFA          PTSUNNY   77  66  69 N14       30.15F
PECOS          MOCLDY    86  62  44 N14       30.00F
$$

DALLAS/FORT WORTH METROPLEX

CITY           SKY/WX    TMP DP  RH WIND       PRES   REMARKS
DFW AIRPORT    CLOUDY    92  70  48 SW22      29.93F
FTW MEACHAM    CLOUDY    86  70  58 S9        29.94F
DAL-EXECUTIVE  CLOUDY    90  70  51 S10G23    29.94F
GRAND PRAIRIE  MOSUNNY   88  72  58 S14G25    29.96F
ADDISON        PTSUNNY   90  68  48 S12G23    29.95F
MESQUITE       PTCLDY    90  70  51 S13G25      N/A
LANCASTER      CLOUDY    89  68  50 S16G23    29.96F
$$

NORTH CENTRAL TEXAS

CITY           SKY/WX    TMP DP  RH WIND       PRES   REMARKS
SHRMAN/DENISON NOT AVBL
GAINESVILLE    CLOUDY    83  69  62 S20G26    29.98S
BRIDGEPORT     LGT RAIN  76  75  96 SW3       29.98S
DENTON         CLOUDY    86  70  58 SW13G23   29.95F
WAXAHACHIE     CLOUDY    90  72  54 S15G23    29.96F
GRANBURY         N/A     85  70  60 S6        29.97S
$$

WESTERN NORTH TEXAS

CITY           SKY/WX    TMP DP  RH WIND       PRES   REMARKS
WICHITA FALLS  HVY RAIN  74  72  93 E12       29.93F VSB 1
VERNON         CLOUDY    73  67  82 NE13      29.98S
BRECKENRIDGE   NOT AVBL
COMANCHE       CLOUDY    77  74  90 N3        29.98F
$$

CENTRAL AND SOUTH CENTRAL TEXAS

CITY           SKY/WX    TMP DP  RH WIND       PRES   REMARKS
AUSTIN/BERGSTM PTSUNNY   92  71  50 S20G28    29.95F
WACO           CLOUDY    90  71  53 S18       29.95F
HILLSBORO      CLOUDY    88  68  51 S15G28    29.96S
TEMPLE         CLOUDY    90  70  51 S21       29.96F
KILLEEN-GRAY   CLOUDY    87  71  57 S18       29.96F
FORT HOOD      CLOUDY    89  70  52 S17G26    29.95F
GEORGETOWN     NOT AVBL
LAGO VISTA     MOCLDY    89  68  49 S8G20     29.99F
SAN MARCOS     PTSUNNY   91  70  49 S21G26    29.96F
NEW BRAUNFELS  MOSUNNY   91  72  53 S21G26    29.95F
RANDOLPH AFB   PTSUNNY   89  72  55 S16       29.96F
SAN ANTONIO    PTSUNNY   91  70  49 S21G29    29.97F
STINSON        MOSUNNY   90  71  53 S15G24    29.93F
PLEASANTON     NOT AVBL
LA GRANGE      PTSUNNY   92  75  57 S16       29.96F
GIDDINGS       MOCLDY    88  71  56 S15G21    30.02S
$$

EAST TEXAS

CITY           SKY/WX    TMP DP  RH WIND       PRES   REMARKS
PARIS          PTSUNNY   88  72  58 S22       29.96S
CLARKSVILLE    NOT AVBL
TYLER          PTSUNNY   91  73  55 S15G22    29.98F
LONGVIEW       MOSUNNY   93  72  50 S14       29.98F
PALESTINE      MOCLDY    91  72  52 S12G18    29.99F
NACOGDOCHES    PTSUNNY   90  72  55 S12G21    30.00F
$$

TEXAS HILL COUNTRY AND EDWARDS PLATEAU

CITY           SKY/WX    TMP DP  RH WIND       PRES   REMARKS
LLANO          CLOUDY    88  66  48 SW14      30.00S
HORSESHOE BAY  MOCLDY    90  68  48 S9G16     29.97F
KERRVILLE      CLOUDY    83  70  63 S14G22    30.00F
FREDERICKSBRG  CLOUDY    84  66  54 S15G21    29.99F
ROCKSPRINGS    CLOUDY    81  68  65 S12       30.03F HAZE
HONDO          PTSUNNY   87  72  60 S20       29.97F
UVALDE         CLOUDY    86  71  60 S13       29.95F
DEL RIO        PTSUNNY   83  72  69 S10       29.93F
$$

SOUTHEAST TEXAS

CITY           SKY/WX    TMP DP  RH WIND       PRES   REMARKS
COLLEGE STN    PTSUNNY   92  73  53 S20G29    29.98F
CALDWELL       MOCLDY    90  75  62 SE17      30.00F
CROCKETT         N/A     93  75  55 S10G17    30.02F
BRENHAM        PTSUNNY   93  73  52 S20       29.99F
HUNTSVILLE     MOSUNNY   91  73  55 S8G18     30.00F
CONROE         MOSUNNY   92  69  47 S16       30.00F
HOUSTON BUSH   MOSUNNY   92  74  55 S16G23    30.00F
HOUSTON HOBBY  MOSUNNY   88  75  65 S16       30.01F
PERLAND        PTSUNNY   90  74  59 SE17G28   30.03F
WHARTON        PTCLDY    89  75  61 S16G25    30.02S
$$

THE UPPER TEXAS COAST

CITY           SKY/WX    TMP DP  RH WIND       PRES   REMARKS
ORANGE         CLEAR     89  71  54 S13G20    30.07F
PORT ARTHUR    MOSUNNY   91  76  61 S16       30.04F
GALVESTON      MOSUNNY   90  79  70 S16       30.04F
ANGLETON       MOSUNNY   90  76  63 S20       30.03S
BAY CITY       MOCLDY    91  76  62 S14G23    30.02F
$$

TEXAS COASTAL BEND, RIO GRANDE PLAINS DEEP SOUTH TEXAS

CITY           SKY/WX    TMP DP  RH WIND       PRES   REMARKS
VICTORIA       LGT RAIN  87  78  74 S18G25    30.00F
BEEVILLE       FAIR      92  74  55 SE18G28   29.96F
ROCKPORT       LGT RAIN  89  77  67 SE17G25   29.98F
PORT ARANSAS   CLOUDY    87  79  75 SE13      29.99S
PORT LAVACA    MOCLDY    87  76  69 S16       30.01F
CORPUS CHRISTI PTSUNNY   92  74  55 S26G33    29.96F
KINGSVILLE NAS PTSUNNY   91  79  67 SE22G29   29.94F
COTULLA        PTSUNNY   92  70  48 SE20      29.91F
LAREDO         MOSUNNY   96  68  40 SE20G29   29.91F
BROWNSVILLE    PTSUNNY   91  76  61 S26G36    29.97F
PORT ISABEL    MOSUNNY   89  76  65 S23G31    29.96F
HEBBRONVILLE     N/A     92  70  48 SE18G29   29.93F
MCALLEN        MOSUNNY   96  74  48 S21G31    29.92F
WESLACO        MOSUNNY   92  70  48 S22G31    29.93F
FALFURRIAS     MOCLDY    92  72  51 SE16G23   29.93F
EDINBURG       PTCLDY    94  71  46 S18G26    29.93F
$$


USA.gov is the U.S. government's official web portal to all federal, state and local government web resources and services.